Flag for Iran Weather past 2 weeks in Mashhad, Iran

Now
77 °F

Scattered clouds.


Feels Like: 77 °F
Forecast: 47 / 76 °F
Wind: 7 mph from Southeast

Location: Mashhad Airport


UV Index: 7 (High)

Visibility: N/A


Pressure: 30.04 "Hg

Humidity: 18%

Dew point: 30 °F

Location of MashhadLocation

Historic Weather in Mashhad

°F

Mashhad temperature yesterday

Maximum temperature yesterday: 75 °F (at 12:30 PM)
Minimum temperature yesterday: 54 °F (at 2:55 AM)
Average temperature yesterday: 66 °F

Past Weeks' High & Low Weather Summary

 TemperatureHumidityPressure
High81 °F (Apr 9, 4:30 PM)100% (Apr 6, 1:30 AM)30.48 "Hg (Apr 6, 1:30 AM)
Low37 °F (Apr 7, 7:00 AM)12% (Apr 9, 5:00 PM)29.80 "Hg (Apr 9, 4:00 PM)
Average59 °F53%30.10 "Hg
* Reported Apr 5 11:30 AM — Apr 20 11:59 AM, Mashhad, Weather by CustomWeather, © 2014

Note: Actual official high and low records may vary slightly from our data, if they occured in-between our weather recording intervals... More about our weather records

Advertising

Historic Weather Conditions — Data for Previous 24 hours

 ConditionsComfort  
Time TempWeatherWind HumidityBarometerVisibility
11:59 AM
Apr 20
73 °FPassing clouds.7 mph29%30.07 "HgN/A
11:30 AM73 °FPassing clouds.9 mph23%30.07 "HgN/A
10:58 AM73 °FPassing clouds.5 mph29%30.07 "HgN/A
10:30 AM70 °FSunny.9 mph38%30.07 "Hg10 mi
9:59 AM70 °FSunny.5 mph35%30.07 "Hg10 mi
9:30 AM68 °FSunny.12 mph46%30.07 "Hg10 mi
9:00 AM68 °FScattered clouds.5 mph46%30.07 "HgN/A
8:30 AM68 °FScattered clouds.5 mph46%30.07 "HgN/A
8:00 AM66 °FScattered clouds.7 mph52%30.07 "HgN/A
7:30 AM61 °FPartly sunny.5 mph59%30.07 "HgN/A
7:00 AM59 °FPassing clouds.5 mph63%30.04 "HgN/A
6:30 AM59 °FPassing clouds.5 mph68%30.04 "HgN/A
6:00 AM59 °FPassing clouds.5 mph68%30.04 "HgN/A
5:30 AM59 °FPassing clouds.5 mph63%30.04 "HgN/A
5:00 AM59 °FPassing clouds.5 mph63%30.01 "HgN/A
4:00 AM61 °FPassing clouds.5 mph52%30.01 "HgN/A
3:30 AM61 °FPassing clouds.5 mph52%30.01 "HgN/A
3:00 AM63 °FPassing clouds.5 mph45%30.01 "HgN/A
2:30 AM63 °FPassing clouds.5 mph45%30.01 "HgN/A
1:55 AM63 °FPassing clouds.5 mph45%30.01 "HgN/A
1:20 AM63 °FPassing clouds.5 mph42%30.01 "HgN/A
12:55 AM64 °FPassing clouds.No wind34%30.04 "HgN/A
12:30 AM64 °FPassing clouds.7 mph37%30.04 "HgN/A
11:55 PM
Apr 19
64 °FPassing clouds.No wind43%30.04 "HgN/A
11:30 PM66 °FPassing clouds.No wind46%30.04 "HgN/A
10:55 PM66 °FPartly cloudy.5 mph43%30.04 "HgN/A
10:20 PM68 °FPartly cloudy.5 mph40%30.04 "HgN/A
9:55 PM68 °FPassing clouds.5 mph38%30.04 "HgN/A
9:30 PM70 °FPassing clouds.7 mph33%30.04 "HgN/A
8:55 PM70 °FPassing clouds.9 mph33%30.04 "HgN/A
8:30 PM70 °FPartly sunny.7 mph29%30.01 "HgN/A
7:55 PM70 °FPartly sunny.12 mph25%30.01 "HgN/A
7:30 PM72 °FBroken clouds.No wind25%30.01 "HgN/A
6:55 PM72 °FPartly sunny.5 mph27%30.01 "HgN/A
6:20 PM73 °FPartly sunny.5 mph23%30.01 "HgN/A
5:55 PM73 °FPartly sunny.5 mph23%29.98 "HgN/A
5:30 PM73 °FBroken clouds.7 mph25%30.01 "HgN/A
5:00 PM75 °FBroken clouds.5 mph22%30.01 "HgN/A
4:30 PM75 °FScattered clouds.No wind21%30.01 "HgN/A
3:55 PM73 °FScattered clouds.5 mph23%30.01 "HgN/A
3:30 PM73 °FBroken clouds.No wind22%30.01 "HgN/A
3:00 PM73 °FBroken clouds.9 mph22%30.01 "HgN/A
2:30 PM73 °FPartly sunny.7 mph22%30.01 "HgN/A
2:00 PM75 °FPartly sunny.7 mph21%30.04 "HgN/A
1:30 PM73 °FPartly sunny.7 mph22%30.04 "HgN/A
Weather by CustomWeather, © 2014

See weather overview